User: anonymous   Login
Location: Nag� el Ma?a??a
(24.0667°N, 32.8833°E)
Time: 18:14:39
(UTC+00:00)
Language:

Palapa B4 Rocket - Orbit

View from above orbital plane
View from above orbital plane
View from above satellite
View from above satellite

Ground track
Ground track

The orbit data is extracted from the following two-line orbital elements,

1 21965U 92027B   21339.86716608  .00000385  00000-0  54104-4 0  9997
2 21965  19.6819  37.1783 1374522   4.2622 356.8262 12.18656092313715
Epoch (UTC): 05 December 2021 20:48:43
Eccentricity: 0.1374522
inclination: 19.6819°
perigee height: 502 km
apogee height: 2695 km
right ascension of ascending node: 37.1783°
argument of perigee: 4.2622°
revolutions per day: 12.18656092
mean anomaly at epoch: 356.8262°
orbit number at epoch: 31371

The dashed part of the orbit path shows where the satellite is in the earth's shadow,  

DLR